STARLINK-11371 [DTC] (62879 NORAD) Tracking and Keplerian Element Data

This shows tracking and keplerian element data for the satellite.

Feedback or suggestion? Click here.




ElementValue
Catalog62879
NameSTARLINK-11371 [DTC]
Epoch Orbit5096
Epoch Day354.21285078
Epoch Year2025
RAAN300.8146
Inclination42.9983
Eccentricity0.0001656
Argument of Perigee243.8607
Mean Anonmoly116.209
Mean Motion15.70871113
Decay Rate0.00157808
L11 62879U 25024A 25354.21285078 .00157808 00000+0 12085-2 0 9993
L22 62879 42.9983 300.8146 0001656 243.8607 116.2090 15.70871113 50962



Live tracking and technical data element details for STARLINK-11371 [DTC] (NORAD 62879). STARLINK-11371 [DTC] can be tracked NOW for your location showing map with azimuth and elevation plus other details from your city location.







IsCatalogInMostPopularTable: catalog: 62879, numindb: 2
Update: records affected: 1



GetName: 62879 STARLINK-11371 [DTC]

Hit Count: updated at: Sun, 08 Feb 2026 17:38:28 GMT